This is the latest recevied weather packets stored in our database for station/object CE3PA-5. If no packets are shown the sender has not sent any weather packets the latest 10 day(s).
| Time | Temp. | Humidity | Pressure | Rain* | Wind** | Luminosity | Snow |
|---|---|---|---|---|---|---|---|
| 1777397140 | 26.67° C | 16% | 756.7 hPa | - | - | - | - |
| 1777391739 | 25.56° C | 15% | 756.8 hPa | - | - | - | - |
| 1777389939 | 25.56° C | 15% | 756.8 hPa | - | - | - | - |
| 1777388138 | 24.44° C | 15% | 756.6 hPa | - | - | - | - |
| 1777387240 | 23.33° C | 15% | 756.5 hPa | - | - | - | - |
| 1777386338 | 22.22° C | 15% | 756.5 hPa | - | - | - | - |
| 1777384538 | 20° C | 15% | 756.6 hPa | - | - | - | - |
| 1777383637 | 18.89° C | 16% | 756.6 hPa | - | - | - | - |
| 1777381837 | 15° C | 17% | 756.6 hPa | - | - | - | - |
| 1777380942 | 12.78° C | 17% | 756.6 hPa | - | - | - | - |
| 1777379137 | 6.67° C | 19% | 756.4 hPa | - | - | - | - |
| 1777378236 | 4.44° C | 19% | 756.2 hPa | - | - | - | - |
| 1777377336 | 3.33° C | 19% | 756.2 hPa | - | - | - | - |
| 1777376440 | 2.78° C | 19% | 756.1 hPa | - | - | - | - |
| 1777375544 | 2.78° C | 19% | 756.2 hPa | - | - | - | - |
| 1777374639 | 3.33° C | 19% | 756.1 hPa | - | - | - | - |
| 1777373739 | 3.33° C | 19% | 756.1 hPa | - | - | - | - |
| 1777372839 | 3.89° C | 19% | 756.1 hPa | - | - | - | - |
| 1777371939 | 5° C | 18% | 756.1 hPa | - | - | - | - |
| 1777370360 | 5° C | 18% | 756 hPa | - | - | - | - |
| 1777370138 | 5° C | 18% | 756 hPa | - | - | - | - |
| 1777368338 | 5° C | 18% | 756 hPa | - | - | - | - |
| 1777366538 | 5.56° C | 18% | 756 hPa | - | - | - | - |
| 1777362937 | 6.11° C | 18% | 755.8 hPa | - | - | - | - |
| 1777361137 | 6.11° C | 18% | 756 hPa | - | - | - | - |
* Rain since midnight (hover to see other rain measurements)
** Current wind speed in m/s (hover to see current wind gust speed)